STARLINK-36838

Last updated on Sun Mar 22 2026 00:02:05 GMT+0000 (Coordinated Universal Time)

1 67855U 26034F 26080.48669405 .00182754 00000+0 90772-3 0 9998 2 67855 53.1586 152.1903 0001706 88.2122 271.9096 15.80927171 5807
UTC large
Height (km)
Speed (km/s)
/
Latitude / Longitude
Inclination (degrees)
Orbital Period (minutes)
Azimuth
Elevation
Range (km)
Doppler Factor

Next 0 passes for location: London (51.5072 / 0.1276)

Sorry there are no passes over London.